Wind_Speed
21 18 19 21 23 26 25 27 27 24 22 20 18 19 18 19 19 16 16 16 15 13 13 12 11 11 15 16 15 15 13 14 13 13 15 18 21 21 19 16 18 19 16 15 13
21 19 19 17 19 22 24 25 26 25 23 22 20 18 20 21 21 19 18 17 15 14 15 13 12 11 12 19 18 15 11 9 12 14 15 17 14 11 12 11 9 7 6 8 9
22 22 19 17 17 18 21 23 26 26 24 23 20 18 19 22 22 21 21 19 18 16 15 14 13 15 12 13 14 11 7 6 9 12 13 10 6 6 4 5 10 9 6 9 11
23 22 18 17 18 19 20 22 24 25 25 24 22 20 19 22 22 22 23 20 20 16 15 15 14 14 13 11 12 12 15 15 17 12 12 9 7 6 4 7 13 14 10 14 11
27 27 28 23 21 21 23 22 23 25 24 24 22 20 20 19 21 22 23 22 20 19 18 18 16 16 19 14 15 13 14 16 17 16 7 6 6 6 1 12 15 16 16 17 17
30 29 31 25 24 23 23 24 24 25 25 23 23 21 22 19 21 22 23 24 22 21 20 20 19 16 16 17 16 15 14 13 13 11 6 8 2 3 2 10 15 16 22 21 19
34 33 32 32 27 26 26 26 26 25 25 25 24 21 23 20 22 22 23 24 22 22 22 21 19 17 16 16 16 15 9 9 9 4 5 3 0 5 7 7 13 17 23 21 21
37 35 37 35 32 26 26 28 28 28 26 26 24 23 24 22 22 23 23 25 24 23 23 23 20 18 17 17 18 15 11 12 12 6 6 7 5 6 8 7 8 15 21 19 18
38 41 41 39 33 26 29 30 30 30 29 26 24 23 24 21 22 23 22 23 25 23 24 25 23 19 18 18 17 15 16 17 16 12 11 13 9 8 7 5 8 13 14 21 18
40 39 37 36 31 29 30 30 32 32 32 30 27 25 25 23 24 23 23 23 25 25 24 26 25 23 20 19 19 18 17 17 17 13 11 11 13 13 14 8 7 6 10 15 18
42 35 34 33 32 30 32 30 32 33 34 33 29 28 27 28 27 26 22 23 23 27 29 28 27 22 22 19 22 23 23 22 20 15 12 13 11 13 14 16 3 7 8 10 16
40 37 38 35 32 34 32 30 31 32 34 33 31 30 29 29 28 27 24 23 25 26 27 28 29 25 26 23 27 28 29 27 24 22 18 16 11 11 14 8 9 5 7 11 10
41 40 42 41 37 37 32 30 31 29 30 30 31 31 32 30 30 29 27 26 27 25 26 32 28 27 28 31 30 32 33 31 26 25 18 16 13 10 10 10 7 9 6 13 10
43 43 44 42 42 37 33 28 29 27 26 26 28 30 33 34 33 32 31 30 29 32 31 31 31 29 30 33 35 33 30 29 29 28 27 22 15 12 12 10 10 11 11 17 16
46 45 44 44 43 36 30 29 26 25 25 27 30 32 35 35 35 36 35 34 35 33 31 33 35 31 29 32 31 32 31 36 33 34 33 31 24 22 20 15 12 15 15 16 18
49 47 47 46 38 33 33 33 31 31 32 33 35 35 37 39 41 41 41 40 37 36 34 36 39 33 33 30 30 34 38 36 39 40 36 34 31 26 26 26 22 21 20 21 22
45 42 40 37 38 39 39 39 37 36 35 35 36 34 33 32 34 37 40 43 42 41 42 41 39 36 33 31 29 31 39 42 43 42 39 37 34 31 29 28 26 25 24 24 27
36 37 36 37 36 37 40 42 40 36 34 35 32 29 28 30 29 31 35 37 40 43 42 42 42 41 39 37 38 35 34 39 43 43 39 37 37 32 32 33 32 30 30 30 29
30 34 36 40 41 43 42 39 36 33 33 33 31 29 29 31 28 25 25 28 31 37 43 44 45 43 42 41 38 35 33 38 37 38 40 37 41 35 36 37 36 35 34 34 32
32 34 33 30 35 39 41 40 38 36 34 33 34 33 33 33 30 25 23 24 27 32 35 41 43 41 42 41 39 36 37 35 35 34 33 37 39 43 40 40 38 37 37 37 37
28 31 36 37 35 33 32 35 35 34 34 35 37 36 34 35 34 29 28 26 25 26 31 35 38 37 37 38 37 38 39 39 38 36 34 32 35 41 39 43 40 40 41 39 38
35 32 32 36 40 39 37 34 33 36 37 39 39 39 38 37 38 36 35 32 30 27 26 28 33 35 37 37 35 33 36 38 38 36 33 30 31 35 34 34 34 35 35 34 33
45 42 38 36 37 42 44 43 41 41 42 42 43 43 42 41 41 41 38 37 36 33 31 29 30 29 33 34 35 34 34 36 38 39 35 31 31 30 32 32 33 34 35 35 35
54 50 47 43 40 40 44 47 48 48 49 49 48 47 46 46 45 44 43 41 40 38 36 34 33 31 30 31 31 30 32 34 35 34 37 35 37 36 36 35 35 38 38 38 39
59 57 54 51 48 44 43 46 49 50 52 54 53 53 52 51 51 50 48 46 43 43 41 38 37 36 35 32 28 27 28 29 29 31 30 38 37 39 41 39 39 40 39 38 39
63 62 60 57 55 52 49 48 48 51 52 53 54 56 56 56 56 57 54 51 49 47 45 42 39 37 37 36 32 30 28 27 27 25 27 34 39 47 42 39 39 41 39 42 40
54 63 66 64 60 58 57 55 53 52 53 55 56 56 58 58 59 59 59 56 54 52 51 47 44 40 38 38 35 31 33 32 27 24 24 28 41 42 40 40 42 42 42 44 43
Wind_Direction
290 288 280 270 265 263 260 259 258 256 256 249 241 249 251 256 261 261 263 268 268 270 268 264 249 233 214 214 224 225 220 227 235 249 287 286 293 303 323 323 319 317 313 309 305
293 295 288 276 271 265 260 258 257 253 253 251 243 244 251 251 256 257 260 259 259 260 264 259 246 233 226 213 214 215 226 245 251 272 283 288 305 316 313 322 4 349 347 335 320
287 292 294 285 280 274 266 259 258 256 253 250 247 242 250 255 250 249 251 256 255 259 257 253 254 223 225 203 205 217 243 260 276 271 281 289 296 299 303 29 32 30 24 16 11
276 283 285 296 284 278 276 268 262 257 255 249 243 242 248 251 248 248 247 253 252 257 253 250 249 244 227 217 233 224 255 265 275 269 290 279 250 240 264 50 51 33 49 27 33
267 273 283 287 285 278 276 272 265 262 260 252 240 238 243 244 246 249 254 252 252 253 256 249 240 238 233 240 233 244 250 278 279 287 276 244 234 256 324 62 52 51 58 44 36
260 268 279 285 284 276 275 274 265 261 261 256 246 239 240 240 244 250 253 255 254 253 251 246 247 241 242 239 245 234 258 262 263 270 214 189 224 292 110 68 63 52 53 56 54
256 267 277 286 285 273 266 269 263 258 256 254 246 245 240 239 245 246 250 253 249 251 253 243 243 244 245 240 233 234 219 224 217 202 189 188 360 142 64 84 68 52 28 52 56
261 267 278 282 287 277 266 268 258 257 256 256 251 242 250 245 244 247 244 248 250 251 250 245 240 240 237 236 231 230 213 220 208 196 237 255 276 138 100 65 53 42 15 37 46
261 269 275 280 284 278 272 263 254 251 255 256 252 244 250 245 243 248 243 247 251 249 244 244 239 238 237 231 225 227 230 228 223 249 262 270 265 245 169 114 95 28 30 15 37
260 272 275 278 277 279 278 260 249 247 249 253 252 249 247 251 244 249 249 241 247 247 237 241 236 228 231 231 224 226 233 234 222 242 241 256 263 259 245 240 112 48 56 21 12
260 265 268 275 280 279 279 258 246 244 248 251 252 253 250 252 249 248 248 250 243 243 242 235 239 231 230 227 227 216 225 226 231 224 234 258 282 293 290 254 146 123 36 15 12
255 258 264 270 280 282 276 257 245 244 246 250 252 255 253 253 253 253 249 244 243 244 247 239 240 231 226 222 229 221 222 225 235 243 245 252 280 280 283 264 248 250 7 348 12
253 257 265 269 277 280 274 257 249 245 244 245 250 254 255 253 251 247 244 237 240 237 240 246 233 231 219 214 220 225 224 227 231 235 238 255 274 267 269 278 281 289 358 343 3
253 257 264 269 276 277 263 250 247 245 243 244 248 249 251 251 252 250 240 238 233 233 232 245 241 229 226 220 215 221 225 224 227 236 241 242 244 248 258 272 298 299 313 309 312
254 259 266 269 274 264 249 247 244 243 247 248 250 252 254 255 254 253 250 244 240 235 233 236 245 236 233 229 223 217 224 228 224 229 237 244 246 250 256 271 275 286 289 297 308
256 261 265 266 259 249 245 244 243 242 246 251 255 258 258 257 256 253 249 246 243 241 235 233 240 236 243 231 224 219 219 226 231 225 227 243 253 257 259 257 273 281 277 283 293
255 255 255 254 251 243 244 244 247 249 252 257 258 260 258 255 250 250 248 246 242 239 240 239 239 240 242 249 241 228 223 223 232 231 231 239 247 251 258 266 270 274 276 276 286
250 251 249 250 249 248 249 249 251 256 257 256 254 249 250 251 247 245 245 246 246 244 239 239 243 242 240 242 242 237 229 229 232 237 235 238 241 243 243 247 259 261 265 273 283
253 252 251 250 250 251 250 251 250 250 250 247 241 236 239 246 249 249 246 243 240 241 241 239 241 241 242 243 244 242 236 230 231 239 241 234 244 240 243 244 248 256 262 272 283
254 254 252 249 250 248 250 248 248 247 243 239 239 233 234 238 246 245 250 250 242 237 238 239 237 237 241 240 240 237 234 231 227 230 235 235 239 242 245 248 255 262 270 276 283
260 257 255 253 251 250 247 246 244 240 235 233 240 240 231 236 236 236 240 242 246 245 241 239 238 234 235 240 238 234 231 228 226 226 230 234 236 242 243 253 257 263 268 273 278
259 258 260 256 252 250 247 245 240 237 234 230 232 241 242 240 244 235 234 236 236 236 239 243 242 238 236 236 234 233 237 234 227 227 224 229 236 242 242 251 254 259 265 269 274
256 255 256 257 255 249 248 244 241 238 237 236 233 235 244 245 244 245 238 234 233 233 235 235 242 240 238 237 238 232 230 234 233 227 219 216 220 238 245 246 254 258 261 264 267
253 253 254 253 253 252 248 245 245 243 240 240 238 237 239 240 240 240 242 238 234 232 234 236 239 239 239 241 242 239 237 234 233 234 227 220 221 226 235 242 244 249 255 258 262
248 250 251 251 251 252 251 248 244 244 243 243 243 241 240 236 236 235 235 238 237 234 231 232 235 243 244 242 241 245 245 239 236 237 226 229 224 225 229 233 240 249 252 257 260
244 245 248 249 250 249 249 249 249 246 244 244 244 242 242 240 236 233 232 233 237 239 236 230 229 235 244 248 247 245 243 243 241 237 232 230 225 229 228 229 232 238 250 255 256
249 246 243 246 247 248 247 247 248 248 247 246 244 242 241 240 238 234 233 233 234 237 240 237 232 231 239 245 247 250 255 253 251 246 242 240 237 231 230 230 230 233 237 246 252
Height
10958 10958 10958 10958 10958 10960 10961 10961 10964 10967 10969 10971 10974 10973 10974 10974 10975 10978 10979 10979 10979 10978 10978 10979 10979 10980 10980 10982 10983 10984 10985 10986 10987 10988 10989 10988 10985 10982 10979 10978 10975 10970 10967 10964 10962
10952 10952 10953 10953 10953 10953 10954 10955 10956 10959 10963 10965 10968 10969 10968 10969 10970 10973 10974 10974 10975 10975 10975 10976 10977 10978 10979 10979 10981 10981 10983 10983 10984 10984 10984 10984 10981 10979 10978 10976 10973 10970 10966 10963 10959
10947 10947 10947 10948 10948 10948 10948 10949 10950 10952 10955 10958 10961 10964 10963 10963 10965 10968 10969 10970 10970 10971 10972 10972 10973 10975 10977 10978 10978 10979 10979 10980 10981 10981 10981 10979 10978 10976 10975 10973 10970 10967 10964 10961 10958
10941 10942 10942 10943 10943 10943 10943 10943 10944 10946 10948 10952 10955 10958 10959 10958 10961 10962 10964 10965 10966 10967 10968 10969 10970 10971 10974 10975 10976 10977 10977 10977 10977 10977 10978 10976 10975 10974 10974 10971 10969 10967 10962 10960 10958
10934 10936 10936 10937 10937 10937 10938 10938 10939 10939 10941 10945 10949 10952 10953 10954 10956 10957 10958 10961 10962 10962 10963 10965 10967 10968 10969 10971 10973 10974 10975 10975 10974 10976 10975 10974 10974 10973 10974 10971 10969 10968 10963 10962 10959
10927 10928 10929 10931 10930 10931 10931 10932 10934 10934 10935 10938 10942 10946 10948 10951 10951 10953 10953 10955 10957 10957 10959 10960 10962 10963 10965 10967 10969 10970 10973 10973 10972 10973 10972 10973 10974 10974 10974 10972 10970 10969 10965 10963 10962
10920 10921 10922 10923 10923 10924 10925 10925 10927 10928 10929 10932 10935 10939 10941 10945 10946 10948 10948 10949 10952 10953 10955 10957 10958 10960 10962 10964 10965 10967 10971 10971 10970 10971 10973 10974 10975 10974 10973 10973 10972 10969 10966 10964 10962
10912 10913 10915 10916 10915 10916 10918 10918 10919 10921 10923 10926 10929 10933 10935 10938 10941 10942 10944 10945 10947 10949 10950 10951 10955 10957 10959 10960 10962 10965 10967 10969 10969 10970 10972 10973 10974 10974 10973 10973 10971 10969 10970 10966 10964
10904 10905 10907 10907 10907 10908 10909 10910 10911 10913 10916 10919 10922 10925 10928 10932 10935 10936 10940 10942 10942 10944 10945 10946 10950 10953 10954 10957 10960 10961 10964 10966 10968 10969 10970 10971 10972 10973 10971 10971 10970 10970 10971 10971 10967
10895 10897 10898 10899 10900 10900 10900 10901 10903 10905 10908 10912 10915 10918 10921 10925 10927 10930 10933 10936 10937 10938 10940 10941 10944 10949 10951 10954 10956 10959 10960 10961 10966 10968 10967 10968 10969 10971 10971 10969 10970 10971 10971 10971 10970
10886 10889 10891 10891 10892 10892 10892 10893 10895 10898 10901 10905 10908 10911 10914 10916 10920 10923 10928 10931 10933 10932 10933 10936 10938 10944 10947 10951 10952 10956 10957 10959 10962 10965 10966 10965 10967 10967 10968 10969 10970 10971 10972 10971 10970
10877 10879 10882 10883 10884 10883 10884 10885 10887 10890 10893 10896 10900 10903 10905 10909 10912 10916 10921 10924 10926 10928 10929 10931 10933 10939 10942 10948 10948 10951 10953 10956 10958 10961 10963 10964 10964 10965 10966 10967 10969 10969 10971 10971 10970
10867 10870 10872 10875 10876 10876 10877 10878 10879 10883 10886 10889 10892 10894 10896 10900 10903 10907 10912 10916 10919 10922 10923 10921 10929 10933 10937 10941 10944 10944 10948 10952 10955 10956 10958 10960 10961 10963 10965 10965 10965 10967 10968 10969 10968
10858 10861 10862 10865 10866 10867 10869 10871 10873 10876 10879 10882 10884 10885 10886 10890 10894 10898 10903 10906 10911 10912 10916 10916 10920 10925 10929 10933 10938 10941 10944 10947 10949 10952 10952 10953 10957 10959 10961 10963 10963 10963 10965 10966 10966
10848 10853 10853 10854 10857 10858 10862 10864 10867 10870 10872 10875 10876 10878 10879 10882 10885 10888 10893 10898 10899 10904 10910 10911 10909 10916 10921 10927 10933 10937 10938 10939 10943 10945 10945 10947 10954 10955 10959 10960 10962 10962 10962 10963 10963
10838 10843 10843 10844 10847 10849 10853 10856 10859 10863 10864 10866 10868 10870 10872 10873 10874 10876 10880 10884 10890 10894 10899 10901 10900 10906 10909 10917 10923 10927 10930 10931 10933 10937 10941 10942 10946 10951 10953 10956 10957 10959 10960 10959 10959
10827 10831 10832 10834 10836 10839 10843 10846 10850 10853 10855 10857 10858 10861 10861 10862 10864 10864 10866 10870 10876 10882 10885 10889 10894 10897 10903 10907 10914 10917 10920 10923 10923 10928 10937 10938 10941 10945 10946 10946 10950 10952 10954 10956 10956
10817 10819 10822 10824 10826 10829 10832 10837 10840 10843 10846 10846 10848 10851 10852 10852 10854 10856 10858 10861 10865 10869 10874 10880 10884 10886 10893 10897 10900 10907 10914 10918 10920 10922 10929 10933 10934 10939 10942 10943 10943 10946 10946 10948 10950
10808 10809 10812 10814 10816 10817 10821 10825 10830 10833 10834 10836 10839 10843 10844 10844 10847 10849 10852 10854 10856 10858 10862 10867 10872 10877 10882 10886 10892 10897 10904 10906 10912 10915 10920 10927 10924 10931 10932 10933 10935 10937 10940 10942 10944
10800 10800 10802 10804 10805 10807 10809 10814 10819 10823 10824 10827 10830 10835 10837 10838 10840 10844 10846 10846 10848 10849 10852 10856 10860 10867 10871 10877 10882 10886 10890 10897 10903 10906 10909 10915 10918 10918 10922 10925 10928 10931 10933 10934 10935
10790 10791 10791 10793 10796 10798 10800 10803 10808 10811 10814 10819 10820 10824 10829 10831 10834 10838 10839 10841 10842 10843 10845 10848 10851 10857 10862 10866 10871 10877 10880 10885 10890 10897 10903 10907 10908 10909 10916 10915 10920 10922 10924 10926 10928
10779 10781 10781 10782 10784 10788 10791 10794 10798 10800 10804 10808 10811 10813 10818 10822 10824 10830 10832 10834 10835 10837 10839 10840 10843 10850 10853 10857 10861 10868 10873 10877 10883 10889 10895 10899 10901 10901 10906 10908 10912 10915 10915 10918 10919
10766 10769 10770 10771 10772 10775 10778 10783 10787 10790 10793 10797 10802 10805 10807 10811 10814 10818 10822 10825 10827 10830 10832 10835 10836 10842 10845 10849 10853 10859 10863 10869 10874 10879 10887 10891 10894 10894 10897 10901 10903 10905 10907 10910 10912
10750 10753 10756 10759 10760 10762 10765 10769 10773 10778 10781 10784 10789 10794 10798 10800 10803 10807 10810 10815 10818 10823 10825 10829 10831 10834 10838 10843 10848 10852 10856 10861 10866 10874 10879 10885 10885 10889 10890 10892 10895 10895 10898 10901 10904
10731 10736 10740 10743 10746 10749 10752 10755 10758 10762 10766 10771 10775 10780 10784 10789 10792 10795 10799 10802 10807 10812 10817 10821 10824 10826 10830 10836 10842 10846 10850 10854 10860 10865 10874 10874 10878 10879 10880 10884 10886 10886 10890 10892 10895
10712 10717 10721 10726 10729 10733 10737 10739 10743 10747 10751 10756 10760 10765 10769 10774 10778 10781 10786 10791 10795 10800 10805 10811 10816 10820 10822 10827 10834 10837 10842 10847 10852 10858 10863 10864 10867 10865 10872 10877 10880 10881 10881 10880 10885
10692 10697 10702 10706 10711 10716 10719 10723 10726 10730 10735 10738 10743 10748 10753 10757 10761 10767 10772 10777 10783 10787 10792 10798 10804 10810 10814 10817 10823 10830 10832 10838 10845 10851 10855 10857 10853 10858 10864 10868 10869 10873 10875 10872 10876